Location: ČR
(50.0000°N, 15.0000°E)
Time: 16:51:24
(UTC+01:00)

Courier 1B - Pass Details

Date: 19 February 2026
Orbit: 962 x 1208 km, 28.3° (Epoch: 16 March)

Event Time Altitude Azimuth Distance (km) Brightness Sun altitude
Rises 20:55:12 0° 230° (SW) 3,945 10.9 -33.7°
Enters shadow 20:59:43 10° 205° (SSW) 3,048 10.0 -34.4°
Reaches altitude 10° 20:59:47 10° 204° (SSW) 3,040 - -34.4°
Maximum altitude 21:02:57 13° 179° (S) 2,841 - -34.8°
Drops below altitude 10° 21:06:10 10° 154° (SSE) 3,099 - -35.3°
Sets 21:10:56 0° 129° (SE) 4,091 - -36.0°
